sat.trackr.live / text

‹ back to catalog

FENGYUN 3C

NORAD 39260 · 2013-052A

PAYLOAD ACTIVE UNKNOWN

§ Identity

Operator
Country
PRC
Launch date
2013-09-23
Launch site
TAISC
Launch vehicle
Mass (kg)
RCS (m²)
7.44

Purposes: earth_obs

External: N2YO · Heavens-Above · Gunter

§ Orbital elements

Epoch: 2026-05-25T05:11:21.183360Z

Period
101.71 min
Inclination
98.4969°
Eccentricity
0.0015879
Mean motion
14.15748907 rev/d
Perigee alt
828.3 km
Apogee alt
851.2 km
Semi-major
7,217.9 km
B*
5.3670e-5
RAAN
120.1480°
Arg perigee
89.4365°
Mean anomaly
270.8629°
Rev number
65,531

§ Raw data

FENGYUN 3C1 39260U 13052A   26145.21621740  .00000064  00000+0  53670-4 0  99962 39260  98.4969 120.1480 0015879  89.4365 270.8629 14.15748907655318

JSON: /api/v1/satellites/39260 · /tle

For live sub-satellite position, see the globe view (requires WebGL).

§ Visibility from observer

Set your observer location to see the next 7 days of passes ≥ 10°. The values pass through the URL so the page stays shareable.

No JS? Fill the form by hand. The geolocation button needs JavaScript.

§ Radio — SatNOGS DB

ModeDescriptionDownlinkUplink
AHRPT AHRPT 1.701 GHz
AHRPT AHRPT Downlink 1.701 GHz
FM MPT 7.780 GHz
QPSK Mode X 8.175 GHz
FM S band telemetry 2.253 GHz
BPSK Telemetry 2.219 GHz

6 transmitters · refreshed weekly from db.satnogs.org